Погода в Красной Речке

Россия / Забайкальский край     51°38′17″N   113°03′30″E
темп.,
°C
ветер,
м/с
пор.,
м/с
влажн.,
%
обл.,
%
осадки,
мм/ч
давл.,
гПа
погр.,
м
17 июня, чт
чт1700:00+7сз3988100 1.9 1004693
03:00+6зсз41094100 6.6 1003526
06:00+7зсз3895100 0.3 1002476
09:00+11сз51077100 0.4 1000738
12:00+16сз81353100 0.4 9982345
15:00+14сз51261100 1.7 9971221
18:00+17сз81448100 0.1 9961957
21:00+15сз71554100 0.1 9961535
18 июня, пт
пт1800:00+12сз61564100 0.0 9961025
03:00+12сз51461100 0.0 9951457
06:00+12сз51461100 0.0 9951586
09:00+13ссз61361100 0.1 9951913
12:00+10сз51185100 0.8 9971137
15:00+10ссз3887100 1.3 998742
18:00+11сз4880100 0.1 999760
21:00+12сз397485 0.1 999662
19 июня, сб
сб1900:00+8сз2395100 0.3 100081
03:00+8зсз239468 0.3 100061
06:00+8сз2392100 0.1 100190
09:00+9сз3992100 2.5 1001664
12:00+11ссз378450 0.4 1001622
15:00+15с467554 2.3 10001281
18:00+14с377947 1.6 1001773
21:00+12ссз3792100 3.0 1003251
20 июня, вс
вс2000:00+8сз22968 0.1 100528
03:00+7сз229714 0.1 100631
06:00+8ссз1296100 0.0 100855
09:00+13с128427 0.0 1007359
12:00+16вюв126888 0.6 1007918
15:00+21всв124459 0.9 10061687
18:00+19в445262 0.0 10061290
21:00+15в25815 0.7 1008121
21 июня, пн
пн2100:00+11в11920 0.0 101010
03:00+10св11940 0.0 101010
06:00+9ссв11950 0.0 101210
09:00+16в23720 0.0 1011501
12:00+22юв34403 0.0 10092071
15:00+24вюв4535100 0.0 10072194
18:00+23юв453915 0.0 10081592
21:00+18вюв226029 0.0 101034